Location: West Chester
(39.9610°N, 75.6060°W)
Time: 13:14:55
(UTC-04:00)

ISS - Visible Passes

Search period start: 08 September 2024 00:00
Search period end: 18 September 2024 00:00
Orbit: 415 x 425 km, 51.6° (Epoch: 08 September)

Date Brightness Start Highest point End Pass type
(mag) Time Alt. Az. Time Alt. Az. Time Alt. Az.
08 Sep -1.0 04:08:41 15° ESE 04:08:41 15° ESE 04:09:26 10° ESE visible
08 Sep -2.3 05:41:46 18° WSW 05:42:46 20° SW 05:45:22 10° S visible
09 Sep -1.4 04:58:09 14° SSE 04:58:09 14° SSE 04:58:48 10° SSE visible
09 Sep -1.7 20:00:42 10° SSE 20:02:01 12° SE 20:02:31 12° ESE visible
09 Sep -1.0 21:35:03 10° WSW 21:35:35 14° WSW 21:35:35 14° WSW visible
10 Sep -3.9 20:47:48 10° SW 20:51:06 64° SE 20:51:23 61° ESE visible
11 Sep -3.1 20:00:43 10° SSW 20:03:48 35° SE 20:06:47 11° ENE visible
11 Sep -1.5 21:37:40 10° W 21:39:48 25° NW 21:39:48 25° NW visible
12 Sep -2.7 20:49:54 10° WSW 20:53:08 43° NNW 20:54:52 23° NNE visible
13 Sep -3.5 20:02:16 10° WSW 20:05:36 72° NW 20:08:58 10° NE visible
13 Sep -1.0 21:40:37 10° WNW 21:42:38 17° NNW 21:42:38 17° NNW visible
14 Sep -1.4 20:52:29 10° WNW 20:55:08 21° NNW 20:57:12 13° NNE visible
15 Sep -1.9 20:04:24 10° W 20:07:23 29° NNW 20:10:23 10° NE visible
15 Sep -0.6 21:43:34 10° NNW 21:44:32 12° NNW 21:44:32 12° NNW visible
16 Sep -1.0 20:55:15 10° NW 20:57:06 14° NNW 20:58:46 11° NNE visible
17 Sep -1.1 20:06:53 10° WNW 20:09:08 17° NNW 20:11:24 10° NNE visible
17 Sep -0.4 21:45:47 10° NNW 21:45:50 10° NNW 21:45:50 10° NNW visible
